Wind_Speed
42 42 42 42 41 41 41 41 40 38 37 37 39 40 40 39 38 37 35 35 34 32 31 30 29 29 30 30 29 29 30 30 28 27 27 27 26 25 24 22 21 21 19 19 19 19 19 19 17 15 13 13 13 12 11 11 10 10 10 9 9 8 10 10 10 11 13 12 12 13 13 14 16 16 17 18 16 14 14 14 14 15 15 16 18
42 42 41 41 41 42 42 41 40 39 37 37 37 38 39 40 40 38 37 37 36 35 34 32 32 31 31 32 32 31 31 31 31 30 30 29 28 27 27 26 25 23 21 21 21 19 19 20 19 16 14 14 15 14 14 13 13 12 12 13 13 12 12 13 13 12 15 16 15 16 15 15 16 17 17 18 17 15 15 15 15 16 17 19 20
43 42 41 41 42 42 41 40 40 39 38 37 37 37 38 39 39 39 38 38 37 37 36 34 34 34 33 34 34 33 32 32 32 33 33 32 30 29 28 28 28 27 25 23 22 21 20 21 21 19 16 16 16 16 17 17 16 16 15 15 16 15 15 16 16 15 17 18 18 18 17 16 17 18 17 17 17 17 18 18 18 19 20 21 20
42 42 41 41 41 41 40 40 40 39 39 38 38 38 38 37 38 38 39 38 38 38 37 36 35 35 35 35 35 35 34 33 33 34 33 33 32 31 29 29 28 28 28 27 25 24 22 22 22 21 19 20 20 19 19 20 19 18 18 17 17 16 16 17 18 19 18 19 19 18 17 18 19 19 18 18 17 18 19 19 19 21 20 18 13
41 41 41 40 40 40 40 40 39 40 40 40 40 39 39 37 37 38 38 38 38 38 38 37 37 36 37 37 37 37 36 35 34 34 34 34 34 33 31 30 29 28 28 28 27 26 25 25 24 22 21 21 22 22 21 21 20 20 19 19 18 18 17 16 17 19 19 20 19 19 19 19 20 20 19 18 19 20 19 19 19 19 16 11 10
39 40 40 39 39 39 40 40 40 40 41 41 41 40 39 38 37 37 38 38 38 38 38 38 38 38 39 38 38 38 38 37 36 35 35 35 34 34 33 32 31 30 28 28 28 27 27 27 26 25 23 23 23 23 22 22 21 21 21 20 19 19 18 17 17 17 18 19 19 20 21 21 22 22 20 17 18 21 22 21 17 13 11 11 14
38 38 38 38 38 39 40 40 40 40 41 41 41 40 39 39 39 38 38 38 38 38 39 39 39 39 40 40 39 39 38 38 37 36 36 35 35 35 34 34 33 32 31 30 28 28 27 27 27 27 27 26 25 25 24 23 22 22 22 21 20 20 20 19 18 18 18 18 18 20 22 22 22 23 21 18 18 20 22 20 15 12 13 15 18
37 37 37 37 37 38 39 39 40 40 40 41 40 39 39 39 40 39 38 38 38 38 39 40 40 39 40 41 41 40 39 39 38 38 37 36 35 35 35 34 34 34 34 33 31 29 28 27 27 27 28 28 29 28 27 26 24 23 23 22 22 22 22 21 20 20 19 19 19 21 22 23 23 23 23 21 18 19 18 15 13 15 18 19 18
36 36 36 36 37 37 37 37 38 39 39 39 40 40 39 39 39 39 39 39 39 39 39 39 39 39 39 40 40 40 39 40 40 39 38 37 37 36 36 36 35 35 34 34 33 32 31 30 29 28 27 27 29 29 28 27 26 25 24 24 24 24 24 23 22 22 21 19 20 21 21 22 24 24 23 21 19 18 15 11 12 15 19 20 20
34 34 35 36 37 37 37 36 37 37 38 39 39 40 39 39 39 39 39 40 40 39 39 38 39 39 39 39 39 39 40 40 41 41 40 39 38 38 37 37 36 35 34 34 33 33 33 32 31 30 28 27 27 27 27 26 26 26 25 25 25 25 25 25 24 23 21 20 21 21 19 22 25 24 23 22 20 17 14 12 13 16 16 18 19
35 35 35 36 37 36 37 37 36 37 38 39 39 40 40 39 38 39 39 40 40 39 39 38 39 39 40 39 39 39 40 41 42 42 42 41 40 39 37 37 36 36 35 34 33 34 34 33 33 32 30 29 28 28 27 27 27 27 27 26 27 27 27 27 26 25 23 22 22 21 19 22 27 25 22 23 21 17 15 14 14 14 12 12 13
36 37 37 37 38 37 37 38 37 38 38 39 39 40 39 39 39 38 39 39 40 40 39 39 40 40 40 40 40 40 41 42 42 42 43 43 42 40 38 37 36 36 35 35 35 35 34 33 33 33 32 32 31 30 29 28 27 27 27 27 28 28 29 29 28 27 26 24 23 23 22 24 27 25 23 23 21 18 17 16 13 12 11 10 11
34 36 37 37 38 39 39 38 38 38 39 39 39 39 39 40 39 39 39 39 40 40 40 40 40 40 40 40 40 41 42 43 43 43 43 44 44 42 40 38 37 36 35 35 35 35 35 34 33 33 34 33 33 32 31 30 29 28 29 29 30 31 31 31 31 30 29 26 25 26 26 25 26 26 25 23 22 19 18 17 14 12 11 11 12
30 31 34 37 38 39 39 39 39 39 39 39 39 39 39 40 40 39 38 38 39 40 41 41 41 41 41 41 41 42 43 44 44 44 44 44 44 44 42 39 37 36 36 36 35 35 35 35 35 35 35 35 34 33 32 32 31 30 31 31 32 33 34 34 34 33 32 30 29 29 29 27 27 27 27 25 23 21 19 18 15 13 12 12 13
25 26 28 32 35 37 39 39 38 39 39 39 39 39 39 39 39 39 38 38 39 40 41 41 42 42 42 42 41 42 43 45 46 45 45 45 44 44 43 40 37 36 36 35 35 36 36 35 36 36 36 36 35 34 33 32 32 31 32 32 33 33 33 35 36 36 35 34 32 32 31 29 28 27 26 25 24 22 19 17 15 14 13 12 11
24 26 26 30 34 36 37 38 38 38 39 39 39 39 39 39 39 39 38 37 38 39 40 41 42 42 42 41 41 41 43 45 46 46 46 45 44 44 44 41 37 35 35 35 35 36 36 36 36 36 37 37 36 35 34 33 32 32 32 32 31 29 29 30 31 34 36 36 35 33 31 29 26 25 23 22 22 21 18 15 14 14 12 11 10
25 27 26 28 32 35 36 37 38 38 38 38 39 39 39 40 39 39 38 37 37 38 40 40 41 41 42 41 41 42 43 44 45 46 46 45 44 43 43 42 39 37 37 37 36 36 37 37 37 37 37 38 38 37 35 33 33 32 33 32 30 29 29 28 26 27 30 32 33 32 30 26 22 20 20 20 20 20 18 16 16 15 12 10 9
23 28 30 30 31 34 37 38 38 38 39 39 39 39 39 39 39 39 38 37 37 37 38 38 39 40 41 42 42 42 42 43 44 45 46 46 44 43 42 41 40 39 39 38 38 37 37 37 37 37 38 38 38 37 35 33 33 34 34 33 30 31 33 31 27 25 25 26 27 26 25 22 19 18 19 20 20 20 19 19 19 17 14 12 12
16 20 25 31 34 36 39 41 40 40 40 40 40 39 39 39 39 39 39 38 37 36 36 36 37 39 41 42 43 42 42 42 43 44 45 45 45 44 42 39 38 38 38 38 38 38 39 39 38 38 38 38 38 36 35 33 33 34 34 32 30 32 33 31 28 27 25 24 23 22 22 20 18 17 18 20 21 21 20 20 20 19 20 19 16
16 18 19 23 31 36 39 42 43 42 41 41 40 39 40 39 38 39 39 38 36 35 34 35 36 38 39 40 41 42 42 41 41 43 44 44 44 44 41 38 38 38 38 38 37 37 38 39 40 40 40 39 38 37 36 35 34 35 34 33 32 33 33 31 29 27 25 24 22 21 19 18 17 17 19 19 19 18 18 19 20 22 24 23 18
21 20 20 19 23 32 37 40 44 44 43 42 40 39 40 40 39 39 38 37 36 35 34 34 35 36 37 38 39 41 42 42 41 42 43 43 44 44 43 41 40 39 38 38 37 37 37 39 41 41 40 39 38 36 35 33 33 33 34 35 35 33 31 29 28 26 24 22 20 19 18 16 16 16 17 16 15 14 16 18 20 22 23 22 18
25 24 23 20 19 25 33 38 41 42 41 40 39 39 39 39 38 38 37 36 36 35 34 33 33 33 35 36 38 40 41 42 42 42 43 43 44 44 44 44 43 40 38 37 37 38 38 39 41 41 41 40 40 37 34 31 29 29 31 32 32 30 28 27 26 24 22 20 19 18 17 15 14 13 13 13 13 14 16 18 19 20 18 16 14
27 27 26 24 21 21 28 35 39 39 39 39 39 38 37 37 37 37 36 35 34 34 34 33 31 31 32 34 36 38 39 40 41 43 43 43 43 44 45 45 45 42 39 38 39 40 41 40 40 40 40 40 40 40 39 36 34 32 31 29 28 28 26 25 24 23 22 21 19 18 16 14 13 13 14 14 15 16 16 16 17 16 13 12 11
27 27 27 27 26 24 25 32 37 39 39 40 39 37 36 36 35 35 35 34 33 33 33 32 30 30 30 31 34 36 37 38 39 42 44 43 43 44 45 46 46 45 42 41 41 42 41 39 39 39 39 39 39 39 39 38 38 37 35 32 30 28 26 26 25 23 22 21 20 18 17 16 16 16 16 16 16 15 14 13 13 11 12 12 9
25 26 27 28 28 27 26 29 35 38 39 39 39 37 36 35 34 34 34 33 32 32 31 31 31 29 29 30 31 34 36 36 38 41 43 43 43 43 43 44 46 47 46 44 44 43 41 39 39 39 38 38 37 37 37 37 35 33 31 30 29 29 28 27 26 23 22 22 21 20 20 20 20 20 19 17 16 13 12 12 13 13 12 10 8
24 25 26 27 29 28 27 28 32 36 38 39 39 39 38 36 34 33 33 33 34 32 31 31 31 29 29 30 31 32 33 34 36 39 42 43 44 44 43 42 43 45 47 47 46 44 41 40 40 39 38 38 37 36 35 34 31 28 27 26 27 28 29 28 26 24 24 24 23 23 24 24 23 22 20 18 17 16 16 16 16 15 12 10 11
24 25 26 28 29 28 27 28 30 33 35 37 37 37 38 37 36 34 34 33 32 31 30 30 29 29 29 29 29 29 31 33 35 37 40 43 44 45 45 44 42 43 46 48 47 44 42 40 40 39 37 36 35 33 32 30 28 26 26 26 27 27 28 28 27 26 26 26 26 26 26 25 23 22 20 20 20 20 20 19 18 15 13 12 14
25 26 27 28 28 27 27 28 29 31 33 35 35 35 35 36 35 35 36 36 32 30 30 30 30 31 30 28 26 27 29 32 36 38 40 43 44 44 44 45 44 44 45 46 46 44 41 39 38 36 34 32 31 31 30 29 27 26 26 26 26 26 27 26 26 26 26 27 26 26 25 24 23 22 21 21 22 23 22 20 17 16 14 14 17
26 25 25 25 26 25 26 28 29 30 31 33 35 37 38 39 38 37 39 40 39 37 35 34 34 33 31 30 29 28 29 35 40 42 42 43 44 45 45 45 46 46 45 46 45 42 38 36 34 32 30 30 29 29 27 26 25 24 24 24 23 24 25 26 26 28 28 28 27 26 25 24 24 22 20 21 23 24 23 20 17 15 14 14 17
24 23 22 22 24 24 24 27 28 30 31 32 33 34 35 38 40 39 38 40 43 43 41 38 37 35 33 34 36 36 37 38 38 38 40 42 44 46 46 46 46 45 44 45 42 37 33 32 32 31 30 30 29 27 26 25 23 22 20 20 20 21 24 26 28 29 29 28 27 26 26 25 23 21 21 22 23 22 21 19 17 14 13 15 17
22 22 20 20 25 26 23 26 27 28 31 32 31 30 29 31 34 35 35 36 39 41 41 40 38 37 37 38 39 40 41 39 35 34 38 41 43 44 46 46 45 44 45 44 39 35 32 31 31 31 32 31 30 29 27 26 24 23 20 20 21 22 23 25 27 28 28 27 27 26 25 23 22 22 23 23 22 22 21 19 16 14 14 16 17
22 22 20 21 25 26 23 26 28 29 29 29 29 28 26 25 25 29 32 34 36 38 40 39 38 39 40 40 39 38 39 38 37 36 37 39 42 44 45 45 44 45 44 40 36 35 33 32 32 33 32 32 32 32 30 27 26 24 22 22 23 23 23 23 24 25 26 26 25 25 24 23 22 23 24 23 22 23 23 21 18 16 15 16 16
24 23 22 21 23 23 19 17 20 25 28 28 29 28 27 25 24 26 29 31 34 36 38 39 40 41 42 42 42 41 40 39 38 37 36 37 39 41 42 43 44 44 42 38 35 34 33 33 33 34 34 34 34 33 30 27 26 25 26 26 26 24 23 22 21 23 24 24 25 25 24 23 23 23 23 22 23 25 25 22 19 17 16 17 16
27 24 21 21 22 22 18 13 14 19 24 28 30 31 33 34 33 30 28 27 27 30 34 38 41 42 42 42 41 42 41 41 40 39 38 36 36 36 38 41 42 40 38 37 36 35 34 33 34 36 37 36 35 32 29 25 22 21 22 25 25 25 23 22 22 23 24 25 25 25 23 23 24 23 22 23 24 25 25 23 21 19 18 19 18
30 26 22 21 22 22 21 20 21 21 20 24 29 33 35 35 33 30 28 26 25 26 29 34 39 42 42 41 41 41 41 41 40 40 40 38 36 33 34 35 36 36 36 37 37 36 35 35 36 38 38 36 34 30 22 17 16 18 22 26 28 27 24 24 24 25 25 26 26 25 24 24 25 24 24 25 25 25 25 24 21 20 20 20 19
31 30 27 23 22 23 24 26 26 24 18 17 21 26 28 29 27 25 24 24 24 24 26 29 34 37 39 41 41 41 40 40 39 39 38 38 38 36 34 34 35 35 37 38 39 39 38 37 37 36 35 34 31 21 13 15 17 24 30 32 30 26 24 25 26 26 27 28 29 27 26 26 27 26 27 28 26 25 26 24 21 20 20 20 20
30 29 29 28 25 24 25 26 29 30 26 21 20 22 24 26 26 23 22 22 23 23 25 27 29 30 32 37 40 40 39 38 37 36 36 36 37 38 39 38 37 37 37 38 39 38 37 38 37 35 34 32 22 11 15 19 22 27 32 34 31 26 24 26 27 28 30 31 31 30 28 28 29 30 29 28 26 25 24 21 19 19 19 18 20
30 29 30 31 29 25 25 26 27 28 24 20 21 23 23 23 24 23 23 24 24 24 24 26 28 29 31 35 36 36 34 33 32 33 35 36 38 39 40 39 38 37 37 38 39 38 37 38 37 35 32 26 13 12 18 21 21 26 32 34 31 27 25 26 27 30 32 31 29 29 29 29 30 30 29 28 27 25 21 18 17 17 17 18 21
31 31 32 33 32 27 25 24 20 18 17 15 15 16 17 17 20 22 23 23 24 24 25 25 27 29 32 34 34 32 30 29 30 32 35 37 38 40 40 38 36 35 36 36 36 35 35 35 33 30 27 23 16 13 15 17 18 24 30 31 28 26 25 25 27 30 31 30 27 28 29 29 29 29 29 28 26 23 19 17 17 16 17 19 23
30 31 32 33 33 28 22 20 18 18 22 25 24 21 21 22 23 25 24 24 25 26 27 27 28 29 30 33 35 33 30 29 30 32 34 35 37 38 37 35 34 33 33 32 31 31 29 28 26 22 20 20 18 16 17 22 26 28 30 30 29 27 26 26 29 31 32 31 28 27 28 29 29 29 29 26 24 20 17 16 16 16 18 22 24
29 31 31 32 32 30 20 18 25 27 29 32 30 29 30 32 31 29 27 25 26 28 28 29 29 27 27 30 34 35 32 30 31 31 31 31 32 31 30 29 29 29 29 27 26 25 24 22 21 19 18 18 16 15 20 28 32 29 27 27 26 26 25 27 30 32 32 31 28 28 29 29 29 29 27 25 21 18 16 15 14 14 17 20 20
28 29 31 30 30 30 25 16 21 29 31 30 26 27 30 33 33 31 29 29 30 29 27 25 23 21 22 25 29 29 26 25 25 25 23 22 21 20 20 20 20 21 21 22 21 21 21 21 20 18 16 16 14 15 20 25 26 23 23 22 22 23 26 28 30 31 32 31 28 27 27 27 26 25 25 23 21 18 16 15 14 13 14 15 14
27 27 29 29 28 27 29 25 15 17 25 28 27 27 29 30 30 30 29 28 28 26 22 18 17 16 18 20 23 22 20 18 19 19 18 17 16 15 14 14 15 15 16 17 18 19 19 19 18 16 15 14 14 14 16 18 19 20 20 19 17 19 23 26 27 29 30 28 27 26 26 25 24 24 23 22 20 17 15 16 16 14 13 12 11
27 27 28 28 28 27 28 28 21 8 12 22 26 27 27 26 25 24 22 20 18 18 18 18 20 21 20 20 21 21 21 21 22 21 20 19 17 16 15 15 15 15 15 16 17 17 18 18 17 15 14 13 12 12 13 14 15 17 18 17 16 18 21 23 24 26 26 26 26 27 27 26 25 23 21 19 17 16 16 16 16 14 12 11 11
26 27 28 28 27 28 28 28 24 16 5 8 17 21 23 23 21 19 18 17 17 18 21 23 25 26 25 22 22 25 26 26 26 25 24 22 21 19 18 18 17 17 17 17 17 17 18 18 17 17 16 16 16 16 16 16 16 17 17 18 19 20 21 22 23 23 23 25 26 26 25 24 22 20 18 17 17 17 16 16 16 14 13 13 12
24 25 26 27 27 28 29 27 23 20 15 9 9 13 17 20 22 23 22 22 22 23 24 26 27 28 28 27 27 29 30 30 30 29 27 26 25 24 22 22 21 21 21 20 20 20 20 20 20 21 21 21 21 21 20 20 20 20 19 19 19 19 20 21 21 19 20 23 24 23 21 20 20 19 18 19 19 18 16 16 15 14 14 14 13
23 24 24 25 27 28 28 27 25 23 21 18 17 18 17 17 21 24 26 27 28 28 28 28 28 29 29 29 29 31 33 34 33 32 30 29 28 27 26 25 24 24 23 23 22 22 23 23 23 24 25 25 25 24 23 22 22 22 21 21 20 19 18 18 17 16 17 19 21 22 21 20 20 20 20 20 19 17 16 15 14 14 14 14 13
22 23 24 26 28 28 27 27 27 26 24 22 21 23 22 20 19 20 21 22 23 25 26 27 27 27 26 26 27 30 33 35 34 34 33 31 30 29 28 27 27 26 26 25 25 25 25 26 27 27 27 27 26 25 24 22 21 21 21 21 21 20 19 18 17 16 17 19 20 21 21 21 20 20 19 19 19 18 18 17 16 15 14 12 11
22 23 25 27 27 27 26 27 27 27 25 24 23 24 24 24 23 24 24 24 23 22 23 24 26 27 27 27 28 29 32 34 35 34 34 33 32 31 31 30 30 30 30 30 29 29 29 29 29 29 28 27 26 26 24 22 21 20 20 19 19 18 17 17 17 16 16 17 19 19 19 20 20 19 19 19 18 18 17 16 15 13 11 9 8
23 23 25 28 27 26 26 27 27 27 26 26 26 25 25 24 22 24 27 29 27 25 24 24 25 28 29 30 31 32 33 33 33 33 34 34 33 33 33 33 33 33 32 32 32 32 31 31 30 30 29 28 27 27 26 24 23 21 20 19 18 16 15 15 15 14 13 13 14 15 16 17 17 17 16 16 14 13 13 12 10 9 7 6 5
23 23 25 27 28 26 26 28 28 27 27 27 26 26 26 24 21 23 29 32 31 29 27 26 26 28 30 32 34 35 34 32 31 31 32 33 33 34 35 35 34 34 34 34 33 32 32 31 30 29 29 28 27 26 26 24 23 21 19 18 18 17 16 15 15 14 12 12 12 12 13 13 13 13 12 11 10 9 9 8 7 6 6 5 4
Wind_Direction
197 199 200 201 203 205 207 210 211 212 211 210 210 211 212 213 213 213 212 211 212 214 218 219 219 219 218 218 218 215 212 213 214 213 213 216 219 220 219 217 219 224 225 222 219 219 225 230 233 234 235 238 237 238 244 247 250 254 256 261 256 245 246 240 236 261 286 298 304 310 316 317 317 321 324 327 331 330 325 324 327 328 327 327 327
198 199 201 202 204 205 207 209 211 213 213 213 212 212 212 212 213 213 213 214 215 216 218 219 219 220 220 220 219 218 216 215 215 214 215 218 220 220 219 219 220 222 223 223 221 220 223 227 230 233 235 237 237 237 242 246 250 253 250 254 260 258 254 250 244 250 270 285 295 300 305 307 308 315 322 325 328 328 325 327 330 329 328 329 327
198 200 201 203 205 206 207 208 210 212 214 215 215 214 213 213 213 213 214 215 216 217 218 219 220 221 221 220 220 219 219 218 217 216 218 219 219 218 218 220 221 222 222 223 222 220 221 224 226 228 232 235 235 235 240 245 250 252 250 252 260 263 261 257 254 250 259 275 286 291 297 302 304 311 320 322 324 325 324 325 328 328 329 329 328
198 199 201 204 205 206 206 208 210 211 214 216 217 217 216 215 214 213 214 215 216 217 219 220 220 221 220 220 220 219 219 220 219 219 220 220 218 218 219 220 220 221 223 223 222 220 221 223 223 225 231 235 236 238 242 245 249 250 251 251 256 261 262 260 260 259 259 267 276 284 292 298 301 308 316 319 320 322 323 326 328 329 330 331 333
198 199 201 203 205 206 207 207 209 211 213 216 218 219 218 218 217 216 215 215 216 217 218 219 219 220 219 219 219 220 220 221 220 220 221 220 219 218 220 220 220 221 223 224 224 224 225 227 225 226 231 233 235 240 243 245 246 248 250 251 253 258 261 260 261 262 260 262 271 283 290 294 298 304 311 315 317 319 322 326 328 329 329 333 338
198 199 201 202 204 206 207 207 208 210 213 215 218 219 220 219 218 217 216 216 216 216 217 217 218 219 219 219 220 220 221 221 221 222 222 221 221 220 221 222 222 223 223 225 227 228 229 231 230 229 231 233 235 239 242 245 246 247 248 251 254 258 261 262 261 260 260 261 270 281 288 291 296 301 307 312 314 315 318 321 327 330 329 334 341
197 199 200 202 204 206 207 208 209 211 213 215 217 218 219 219 219 219 218 217 216 216 217 217 218 219 219 219 220 221 221 221 222 222 222 222 222 222 223 224 224 224 225 227 229 230 232 233 233 232 232 234 236 239 243 246 248 248 249 251 255 258 262 264 264 262 263 266 272 278 284 290 294 298 302 306 306 308 313 317 323 329 329 335 344
196 198 200 202 205 207 208 209 210 211 213 215 217 218 219 219 219 219 218 217 217 217 217 218 219 220 220 220 220 221 221 221 222 222 222 223 224 224 225 225 225 225 226 228 229 231 233 236 236 237 236 236 238 240 243 247 249 250 251 253 256 258 260 262 263 263 264 266 270 274 281 287 290 292 296 299 299 305 311 312 314 324 329 334 342
196 197 200 203 206 208 209 210 211 212 213 215 216 217 218 219 219 219 219 218 218 218 219 219 219 220 220 221 221 221 221 221 222 222 222 222 223 225 226 227 227 227 227 229 230 232 234 237 240 242 242 241 240 241 244 247 249 251 252 253 254 256 258 260 261 261 261 261 265 271 277 281 284 288 291 293 297 303 306 302 306 321 328 329 335
196 198 200 204 206 208 209 210 212 212 213 215 216 217 218 218 219 219 219 219 218 218 219 219 219 220 221 221 221 221 221 222 223 224 223 223 223 224 225 227 227 228 229 230 231 232 235 237 240 243 245 245 245 245 246 248 250 253 254 254 254 254 254 256 257 258 257 256 260 266 270 275 280 284 287 292 298 300 296 295 309 321 326 327 333
196 199 202 204 206 207 208 210 211 213 214 215 216 217 217 218 219 219 219 219 218 218 218 218 219 220 221 221 221 221 222 224 225 225 225 225 223 223 224 226 227 228 230 231 232 233 234 237 240 243 245 247 248 249 250 251 252 254 255 255 255 255 254 253 253 254 253 253 258 262 262 269 278 282 285 292 297 295 290 295 309 318 323 324 325
197 199 201 204 205 206 207 208 210 212 213 215 216 217 217 217 218 218 218 218 218 217 217 217 218 219 220 221 222 222 224 226 226 227 227 226 225 224 224 225 226 228 229 231 233 234 235 236 239 241 243 246 248 250 251 252 252 253 255 256 256 257 257 255 255 255 253 251 255 259 260 266 275 281 284 290 294 293 292 296 305 312 315 314 315
197 200 202 203 204 205 205 207 209 211 212 214 216 217 217 217 218 218 218 218 217 217 217 217 218 219 219 220 222 223 225 227 227 228 228 228 227 225 225 226 227 228 229 231 233 235 236 238 239 241 243 245 247 250 252 253 254 254 256 258 258 258 258 258 258 258 257 256 255 260 264 267 272 280 287 291 292 293 293 295 303 307 306 310 321
196 200 204 204 203 203 204 205 207 210 211 213 214 215 217 217 217 218 218 218 217 217 217 217 217 218 219 220 221 223 226 227 228 229 229 229 228 227 225 226 227 229 230 231 233 235 236 238 240 242 244 245 246 248 250 252 254 256 258 259 260 260 259 258 258 257 256 255 255 260 267 269 273 283 292 293 292 293 293 294 299 301 299 308 322
202 203 207 208 206 204 204 204 206 208 210 211 213 214 216 217 217 217 217 217 217 217 217 217 218 219 219 220 221 223 226 228 229 229 230 230 230 228 226 226 228 230 232 233 234 236 237 238 240 243 245 247 248 249 249 251 254 256 259 261 262 263 262 260 258 256 255 254 255 260 267 271 276 286 293 293 292 293 294 295 295 290 291 304 316
215 212 212 212 210 207 206 205 206 207 209 210 212 213 214 216 217 217 217 218 218 218 218 218 218 219 219 220 221 223 226 228 229 229 230 230 230 229 227 227 228 231 233 235 236 237 239 239 240 242 245 248 251 251 250 251 252 254 257 260 263 265 266 266 265 261 258 256 256 260 267 273 279 284 288 288 288 292 293 291 286 278 281 299 307
227 224 221 217 214 211 209 208 207 207 208 209 211 212 214 215 216 217 217 218 218 218 218 219 219 220 220 220 221 223 226 228 229 230 231 230 229 227 227 227 228 231 234 236 237 239 240 240 241 242 245 248 252 253 252 250 250 252 254 258 262 265 268 270 270 267 265 262 261 263 266 271 273 275 278 280 281 285 284 279 276 273 274 285 283
244 238 231 225 219 214 212 211 209 208 208 210 211 212 213 214 215 216 217 218 219 219 219 219 220 220 221 221 221 223 226 229 229 230 231 231 228 227 226 226 227 230 233 236 238 239 241 242 242 243 245 248 252 253 252 250 250 251 253 255 259 262 266 269 268 268 268 267 265 264 263 264 265 268 275 278 277 276 273 270 273 270 264 265 260
276 263 247 234 224 217 214 212 211 209 209 211 212 212 212 214 214 215 216 219 221 221 220 219 220 221 222 222 223 223 226 229 230 231 231 231 229 227 225 224 225 229 232 235 237 239 241 243 244 244 245 249 251 252 252 251 250 251 252 252 253 257 263 267 267 267 268 267 266 264 261 260 262 267 278 282 278 274 268 267 268 262 258 260 255
306 303 287 256 233 220 214 211 211 211 211 211 212 211 212 213 213 214 215 217 220 222 221 220 220 221 222 223 224 225 226 228 230 231 231 231 229 227 224 223 225 228 231 233 236 238 240 242 243 244 245 247 250 251 250 249 249 251 251 248 247 253 260 263 265 267 267 266 265 263 258 258 264 273 280 279 274 268 261 260 262 258 257 259 251
308 306 305 286 248 226 216 212 212 212 212 212 211 211 212 212 212 212 213 215 218 221 222 222 222 222 223 223 224 225 227 227 229 231 232 231 230 227 224 223 225 228 230 233 235 236 238 240 242 244 244 245 247 248 248 247 248 249 250 248 249 254 258 260 262 265 265 263 260 255 253 259 270 275 273 266 259 254 251 254 259 260 258 256 245
313 307 302 297 272 239 223 217 215 214 213 211 210 211 211 211 212 212 212 213 215 217 221 222 223 223 224 224 224 225 227 227 229 231 232 232 231 229 226 227 228 228 228 231 234 236 238 239 241 244 244 244 245 245 245 246 246 246 249 250 252 253 254 256 260 261 260 256 251 249 253 261 266 261 254 249 245 244 249 255 261 264 259 248 235
316 310 303 298 290 264 237 224 218 216 214 211 210 210 210 210 210 211 211 211 213 216 219 221 222 223 223 224 224 225 226 227 228 231 233 233 232 231 230 231 231 228 227 230 234 237 239 239 241 244 247 247 248 248 248 249 250 250 250 250 251 252 252 253 255 254 254 251 245 245 249 249 247 243 241 243 243 246 253 258 260 257 237 213 214
316 309 303 297 291 279 255 234 222 217 214 211 209 209 209 208 208 209 210 210 211 214 217 218 220 221 222 223 224 224 225 225 226 229 232 234 234 233 232 232 232 231 230 232 235 239 241 240 242 246 250 250 251 252 253 254 254 255 256 254 253 253 251 251 250 248 247 243 239 238 239 237 237 238 239 243 247 251 254 251 242 226 202 197 209
315 308 302 296 288 280 265 243 227 219 215 210 208 207 206 206 206 207 208 209 211 214 216 216 218 219 221 222 223 223 223 223 224 227 230 232 233 234 233 233 233 232 232 233 236 239 241 243 247 251 254 253 253 253 254 255 256 259 261 259 256 253 251 249 247 243 239 236 234 233 234 236 239 241 243 247 249 241 228 216 202 190 191 198 197
316 309 304 298 289 277 263 245 229 220 215 210 208 207 204 203 204 204 205 207 210 213 214 215 217 218 220 222 222 222 222 221 223 226 228 230 232 233 234 234 233 234 235 236 238 240 242 246 250 253 253 253 253 253 254 256 258 260 261 259 256 253 251 247 243 238 234 233 233 234 238 242 244 245 247 248 242 229 217 207 195 188 193 191 175
317 310 307 304 294 277 259 243 228 219 213 210 209 207 205 204 203 202 203 206 209 212 213 214 215 217 220 222 222 222 221 220 222 224 226 228 230 232 234 234 234 233 234 236 238 239 242 245 248 250 252 252 253 254 255 256 257 256 256 257 256 255 253 249 245 241 238 237 237 239 243 245 246 247 249 246 237 228 220 212 199 189 187 182 170
318 311 308 306 298 280 257 240 227 216 211 209 207 206 204 204 203 204 205 206 206 209 212 214 216 218 220 220 221 222 222 221 221 222 223 225 227 229 231 233 234 234 234 236 238 239 240 243 246 247 249 250 251 251 251 251 251 251 252 254 255 254 252 248 242 240 239 239 239 240 242 244 246 250 250 242 232 223 215 208 200 190 184 179 171
319 313 310 308 303 285 259 239 225 215 210 208 208 207 206 204 204 207 209 209 209 210 211 213 216 218 219 219 219 220 222 223 223 223 224 225 227 228 230 232 233 234 237 240 239 237 236 239 243 244 244 245 245 245 243 242 241 242 244 247 249 250 247 240 235 235 235 235 234 236 240 244 248 249 244 234 226 218 208 202 197 190 185 181 173
317 313 310 311 308 292 261 237 224 214 209 207 208 209 209 208 207 208 210 211 213 214 215 216 217 218 219 221 222 223 225 228 228 227 227 229 230 230 233 236 236 236 239 240 236 231 231 235 237 238 239 239 238 236 235 233 232 232 234 237 241 244 243 239 235 234 233 232 233 237 241 243 243 241 235 227 219 209 202 199 196 190 185 180 171
313 309 307 310 314 303 268 237 222 214 210 208 206 204 204 206 208 211 212 213 214 217 218 220 220 220 221 223 225 228 230 233 233 232 230 231 233 233 235 238 239 239 239 237 231 226 227 230 233 235 236 235 235 234 233 230 228 228 230 234 238 241 241 239 235 231 230 230 233 237 239 239 238 235 230 223 213 202 196 196 194 190 187 180 172
308 304 303 306 311 305 275 239 222 213 208 206 204 201 197 196 201 208 212 213 214 217 219 221 223 224 225 226 227 228 231 232 233 234 234 234 235 236 237 238 240 240 238 233 227 225 225 226 230 233 233 233 234 234 232 229 227 226 228 232 236 238 239 240 238 232 228 228 232 234 235 236 236 232 225 218 208 198 192 191 191 189 184 177 174
309 298 296 300 302 298 283 252 228 215 207 203 200 197 194 192 196 203 207 211 213 215 217 220 223 225 226 227 228 229 231 232 232 234 235 236 237 238 238 238 238 237 234 228 225 226 226 226 229 232 232 232 233 232 229 226 223 224 228 232 235 239 242 242 239 230 225 227 231 234 235 235 233 227 219 213 205 196 190 190 191 188 182 178 180
320 305 293 288 285 281 278 266 239 220 210 203 197 192 193 196 198 199 200 202 206 210 211 215 220 223 223 224 227 230 231 232 233 234 235 236 237 238 237 235 234 233 231 227 225 226 227 227 228 231 233 233 233 231 226 218 214 222 233 237 238 240 241 239 232 226 224 228 231 233 235 232 226 219 211 204 198 194 193 193 193 191 188 187 189
332 323 306 285 271 266 264 255 237 222 212 202 195 191 194 198 199 200 200 200 201 203 205 209 215 219 219 220 223 227 229 231 233 234 236 236 237 235 231 228 228 229 229 228 227 227 228 229 230 232 234 234 233 230 218 196 198 223 239 243 241 238 233 230 229 226 225 227 229 231 230 226 220 215 206 197 193 194 196 197 198 199 198 197 199
336 333 323 304 277 260 258 255 244 232 224 212 199 193 194 198 201 202 203 203 204 205 206 209 213 216 216 218 220 224 226 228 230 232 235 236 235 232 225 222 223 226 227 227 227 228 229 231 233 235 236 237 235 225 185 165 196 226 236 238 237 234 228 228 228 225 225 226 226 225 222 217 213 207 200 196 197 199 198 198 202 206 206 207 208
337 332 328 319 299 269 254 253 247 238 231 222 210 201 198 201 205 204 199 198 200 202 205 208 210 210 212 215 218 221 224 225 227 228 230 230 230 228 226 225 225 225 226 228 228 228 229 232 234 236 239 240 234 195 158 176 210 232 236 233 231 230 230 231 229 226 224 223 220 217 213 210 206 202 197 195 196 198 199 202 207 210 214 217 212
338 334 329 325 313 286 256 245 241 237 230 222 214 208 202 200 203 204 201 197 197 197 201 204 206 206 208 210 212 216 219 220 221 222 223 223 223 224 225 226 226 226 227 230 230 229 230 232 234 236 238 236 215 150 153 180 211 235 239 233 229 230 231 230 230 229 225 219 214 210 207 205 203 201 199 197 196 196 201 208 210 212 217 217 208
339 337 334 331 323 300 265 241 229 224 226 229 225 216 208 205 205 205 202 199 198 201 205 206 208 211 211 207 204 205 207 208 212 216 219 221 223 225 225 225 226 227 228 230 231 230 230 232 235 236 237 231 212 182 174 186 212 237 242 235 229 229 227 224 226 228 223 216 210 206 204 204 201 199 198 198 197 197 201 205 207 209 209 205 200
340 338 336 334 330 315 280 239 214 208 214 216 212 206 205 210 213 208 200 195 198 204 209 211 213 215 214 207 201 198 198 201 208 214 217 219 222 225 224 223 223 225 227 228 230 230 230 231 232 232 231 231 226 218 207 201 206 223 237 236 229 226 224 221 222 223 219 212 206 200 199 199 196 194 197 198 196 193 193 196 201 206 205 203 202
346 343 340 336 333 329 305 241 214 211 215 213 206 198 197 202 207 206 200 197 200 204 209 214 216 217 217 212 206 201 200 202 207 211 214 217 220 220 220 219 221 225 226 227 229 229 227 225 225 224 226 232 234 224 207 199 201 214 232 234 225 221 220 217 216 215 211 204 196 192 193 194 193 194 195 194 191 188 189 193 198 203 204 205 206
355 350 345 340 337 338 331 291 233 217 217 217 210 201 199 200 201 200 198 198 203 207 210 213 214 215 216 213 205 197 196 199 201 201 201 204 205 204 205 208 212 217 219 220 221 222 218 214 214 216 217 220 219 206 197 198 206 221 234 231 220 215 214 212 208 206 201 195 190 190 191 191 192 194 193 190 189 190 192 194 193 191 191 194 197
4 358 350 343 341 344 343 330 295 227 213 214 211 206 204 202 199 198 198 199 204 206 203 200 196 192 195 197 193 185 180 179 178 176 174 175 175 174 177 183 188 193 198 201 203 205 206 203 202 202 202 204 205 201 198 202 211 223 232 230 216 204 202 201 198 195 192 190 190 193 192 190 191 192 190 189 193 195 194 194 192 186 185 189 191
12 7 358 348 346 352 352 343 335 307 215 207 205 203 201 198 196 195 193 191 194 192 183 176 170 164 165 172 174 167 158 154 154 155 154 154 154 152 152 157 163 169 174 177 180 185 189 188 185 182 178 178 181 186 190 196 203 213 221 217 200 186 186 189 189 189 190 192 193 192 191 189 188 188 188 190 194 195 194 195 196 193 190 191 191
17 13 5 355 352 359 359 349 345 351 357 185 184 184 185 182 178 173 168 163 162 161 158 157 157 154 152 153 151 146 140 139 140 141 142 143 142 141 141 144 146 149 152 154 157 162 164 163 161 157 153 151 153 159 168 176 185 194 199 194 182 176 176 178 179 182 186 187 185 184 185 186 186 188 189 189 188 187 185 183 185 185 183 181 180
22 21 12 1 0 7 4 353 351 3 18 46 107 134 148 150 146 144 145 144 143 142 142 144 146 145 143 141 138 135 132 131 131 130 131 133 133 133 135 137 137 137 137 139 141 144 145 144 144 143 141 141 143 147 153 160 166 170 171 170 168 168 168 170 173 178 181 182 181 182 186 187 186 187 187 182 177 176 173 170 172 175 173 169 167
24 27 22 11 9 13 10 0 0 12 21 30 54 76 92 110 123 131 136 138 137 137 137 137 137 137 136 135 134 130 127 126 125 124 124 124 124 126 128 129 128 127 126 126 128 129 130 131 132 131 131 133 136 139 143 147 151 152 153 152 153 153 152 156 164 173 181 187 188 187 186 182 177 176 177 175 171 170 168 166 166 167 164 160 159
24 28 31 26 19 15 12 8 8 15 21 28 45 62 72 79 90 103 111 117 121 125 126 125 125 123 121 120 119 118 118 118 118 119 120 120 120 121 123 122 122 121 119 117 116 116 118 120 122 124 125 127 129 130 132 135 138 141 142 141 140 140 142 146 152 158 167 173 175 174 172 169 164 164 167 168 166 164 160 156 155 154 152 150 149
30 30 35 36 28 18 16 18 17 17 22 29 39 53 65 71 76 83 89 91 93 97 103 107 109 109 108 105 104 104 107 109 110 111 114 115 116 117 117 117 116 116 114 112 110 110 111 113 115 118 120 120 120 121 121 123 125 129 133 135 135 136 138 141 143 145 151 158 161 161 160 157 154 154 157 158 158 158 155 153 154 155 153 153 154
35 32 35 40 36 26 23 28 27 24 27 33 38 43 52 60 69 80 87 88 86 86 88 92 97 100 101 101 100 100 100 102 105 108 111 113 115 116 116 115 114 114 112 112 112 112 112 111 111 112 114 115 115 116 116 116 116 116 120 127 131 133 134 135 135 137 142 150 154 156 156 153 150 149 149 149 152 155 156 156 158 162 165 170 175
37 36 36 40 41 34 30 34 35 31 30 35 40 43 47 50 56 72 83 86 86 86 87 88 91 95 97 99 100 100 100 101 103 106 108 110 113 115 115 115 115 114 114 113 113 114 114 112 111 110 110 111 111 112 113 112 111 112 115 121 126 128 129 129 130 131 136 142 146 149 152 152 149 146 145 146 150 153 152 151 153 155 157 160 158
Height
785 788 791 794 796 799 802 805 808 811 812 814 815 816 818 820 821 823 824 826 827 829 830 832 833 835 836 837 838 839 840 841 842 843 844 845 846 847 848 849 850 851 852 853 854 855 855 856 856 856 857 857 857 858 858 858 859 859 859 859 859 859 859 859 859 857 856 856 856 855 855 854 853 852 852 851 851 850 849 848 847 847 846 845 844
781 785 788 791 793 795 798 802 805 808 811 812 813 814 816 817 819 821 822 824 825 827 828 829 831 832 834 835 836 837 838 839 841 842 842 843 844 845 846 847 849 849 850 851 852 853 854 854 854 855 856 856 856 856 856 857 857 857 858 858 858 858 858 858 858 857 856 855 855 854 854 853 852 851 851 850 849 849 848 847 846 846 845 844 843
778 781 785 788 790 792 796 799 802 806 808 810 811 812 814 815 817 819 820 822 823 824 826 827 829 830 831 832 834 835 836 837 839 840 840 841 842 843 844 845 846 847 848 849 850 851 852 852 853 853 854 854 854 855 855 855 856 856 856 856 856 857 857 857 857 856 855 854 854 853 852 852 851 850 850 849 848 848 847 846 845 844 844 843 842
775 778 781 784 787 790 793 795 799 802 805 807 809 810 812 813 815 816 817 819 820 822 824 825 826 828 829 830 831 832 834 835 836 837 838 839 840 841 842 843 844 845 846 847 848 849 850 850 851 852 852 853 853 853 853 854 854 854 854 854 855 855 855 856 855 855 854 853 852 852 851 851 850 849 849 848 847 847 846 845 844 843 842 842 841
772 775 778 781 784 787 789 792 795 798 801 804 805 807 810 811 812 814 815 816 817 819 821 822 824 825 826 827 828 830 831 832 834 835 836 837 838 838 840 840 841 842 843 845 846 847 847 848 848 849 850 850 850 851 851 851 852 852 852 852 853 853 853 854 854 853 853 852 851 850 850 849 848 848 848 847 846 845 845 844 843 842 841 841 840
769 772 775 778 781 784 786 789 791 794 797 800 802 805 807 808 810 811 812 814 815 816 818 819 821 822 823 824 825 827 828 829 831 832 833 835 836 837 838 838 839 840 841 842 843 844 845 845 846 847 848 848 848 848 849 849 850 850 850 850 851 851 851 852 852 852 852 851 850 849 848 848 847 846 847 847 846 844 843 843 842 842 841 840 840
766 769 772 774 777 780 782 785 788 790 793 796 799 801 804 805 807 808 809 811 812 814 815 816 817 819 820 821 822 824 825 827 828 829 831 833 834 835 836 836 837 838 839 840 841 842 842 843 844 845 845 845 845 846 846 847 847 847 848 848 849 849 849 849 850 850 850 850 849 848 847 847 846 845 845 846 846 844 843 842 841 841 840 839 839
762 766 769 771 773 776 779 782 785 787 790 793 795 798 800 802 804 805 807 808 809 810 811 813 814 816 817 819 820 821 822 824 825 826 828 830 831 833 833 834 835 836 836 837 838 839 840 841 841 842 842 843 843 843 844 844 845 845 845 846 847 847 847 847 848 848 848 848 848 847 846 845 845 844 844 844 844 844 843 842 841 840 838 838 838
760 763 765 768 770 773 777 780 782 785 787 789 792 794 797 799 800 802 804 805 806 807 809 810 812 813 815 816 817 819 820 820 821 823 825 827 828 830 831 832 833 833 834 835 836 837 837 838 838 839 839 840 840 841 841 842 843 843 843 844 844 845 845 845 846 846 847 847 846 846 845 844 843 843 842 842 843 843 842 842 841 839 838 836 836
758 760 762 764 767 770 773 776 779 782 784 786 788 790 793 795 797 799 800 801 803 804 806 808 809 810 811 813 814 816 816 817 818 819 821 823 825 826 828 829 830 831 832 833 833 834 835 835 836 836 837 837 838 838 839 840 840 841 841 841 842 843 843 843 844 844 844 845 844 844 844 843 841 841 841 841 841 841 841 841 840 839 838 836 835
753 756 758 760 763 766 769 772 775 777 780 782 784 786 789 792 794 795 797 798 800 801 803 804 805 807 808 809 811 812 813 813 814 816 818 819 822 823 825 826 827 828 829 830 831 831 832 833 833 834 834 835 835 836 836 837 838 838 839 839 840 840 841 841 841 841 842 842 842 843 843 841 839 840 840 839 839 839 839 839 839 838 837 836 835
747 750 752 755 758 761 764 767 770 773 775 778 780 783 785 788 790 792 793 795 796 798 799 800 801 803 804 806 807 808 809 810 811 813 814 816 818 820 822 823 824 825 827 827 828 829 829 830 831 831 832 832 832 833 834 835 835 836 836 837 837 838 838 839 839 839 839 840 840 840 840 839 837 838 838 838 837 838 837 838 837 836 836 836 835
744 746 748 751 753 755 759 762 765 767 770 773 776 779 781 783 785 787 789 791 793 794 795 797 798 799 800 802 803 804 805 806 808 810 811 813 815 817 818 820 821 822 824 824 825 826 827 828 828 828 829 829 830 830 831 832 832 833 834 834 835 835 836 836 836 837 837 838 838 837 837 837 836 836 837 837 836 836 836 836 836 835 835 835 834
741 743 746 747 749 751 754 756 759 763 766 769 772 774 777 779 781 784 786 788 789 790 792 793 794 795 796 797 799 800 801 802 804 806 808 810 812 814 816 817 818 819 820 821 823 823 824 825 825 825 826 826 827 828 828 829 830 830 831 831 832 832 832 833 833 834 835 835 835 835 835 835 835 834 835 835 835 834 834 834 834 834 834 834 833
739 741 744 746 747 748 750 752 755 758 761 765 767 769 772 775 777 780 782 784 785 786 788 789 790 791 793 794 795 796 797 798 800 802 804 807 809 812 813 815 816 817 817 818 820 820 821 822 822 822 823 823 824 825 825 826 827 828 828 828 828 828 829 829 830 831 831 832 832 832 832 833 833 833 833 833 833 833 833 833 833 833 833 833 832
738 739 740 743 745 746 747 749 751 754 757 760 762 765 767 770 773 777 779 780 782 783 784 785 786 788 789 791 792 792 793 794 796 798 801 803 806 809 811 812 813 814 815 816 816 817 818 819 819 819 820 820 820 821 823 824 825 825 825 825 825 825 825 826 827 827 828 828 829 830 830 831 832 832 831 831 831 832 832 832 832 832 832 831 830
737 737 738 740 741 743 744 746 747 750 753 755 757 760 763 766 769 773 775 777 778 779 780 782 783 785 786 787 788 789 789 791 793 795 797 800 803 805 807 809 810 811 812 812 813 813 814 815 816 816 816 816 817 818 820 822 822 822 822 822 822 822 822 823 824 824 825 825 826 827 828 829 829 830 829 830 830 830 830 830 830 830 829 828 827
735 735 735 736 738 739 741 742 744 746 748 750 752 756 759 762 765 768 771 773 774 775 777 779 781 782 783 784 785 786 786 788 790 792 794 796 799 801 804 805 807 808 808 809 810 810 811 811 812 813 813 813 813 815 817 819 819 819 819 819 819 819 818 819 821 821 822 823 823 824 825 826 827 827 827 827 827 828 828 827 827 827 826 825 824
734 733 732 732 733 734 735 737 739 741 742 745 748 751 755 758 761 764 767 769 771 773 775 776 777 778 779 780 781 783 784 785 787 788 790 793 796 798 801 802 803 804 805 805 806 806 807 807 808 809 809 809 810 811 813 815 815 815 816 816 816 815 815 816 818 818 819 820 821 821 822 823 824 824 825 824 824 824 824 823 823 823 821 820 820
731 731 730 729 729 729 730 732 734 735 737 740 743 747 751 753 757 759 762 765 768 770 772 773 774 775 776 778 779 780 781 782 784 785 787 790 792 795 797 799 799 800 801 802 802 802 803 803 804 804 805 805 806 808 809 811 812 812 812 813 813 812 812 814 815 816 816 817 818 819 820 821 821 822 822 821 821 820 820 819 819 818 817 817 818
727 727 727 727 727 726 726 728 729 730 732 736 740 743 746 748 752 754 757 761 764 766 768 769 770 772 773 775 776 777 778 779 781 782 784 786 788 791 793 794 795 796 797 798 798 798 799 799 799 800 801 802 803 804 805 807 808 808 809 809 809 810 811 812 813 813 814 814 815 816 817 818 819 819 818 818 817 816 816 815 815 815 815 815 817
724 724 724 724 724 724 724 725 726 727 729 732 736 738 741 744 748 750 754 757 759 761 764 766 767 768 770 772 773 773 775 777 778 779 781 783 785 787 789 790 791 793 794 795 795 795 795 795 796 796 798 799 800 801 802 803 804 805 805 805 806 808 809 810 811 811 812 812 813 814 815 815 816 816 815 814 814 813 813 813 813 813 814 815 816
721 720 719 719 720 721 722 723 724 725 727 729 731 734 737 741 744 747 750 753 755 758 760 762 764 765 766 768 769 770 771 773 775 776 777 779 781 783 785 786 787 789 790 791 791 791 791 791 792 794 795 796 797 798 799 800 801 801 802 803 805 806 807 807 808 809 810 810 811 812 812 812 812 812 812 811 811 811 811 811 812 812 813 813 814
719 717 716 716 716 717 719 720 721 722 723 725 728 730 734 737 740 743 746 749 751 753 755 757 760 761 762 763 764 766 768 769 771 772 773 775 777 778 780 782 783 785 786 786 787 787 787 788 789 791 792 793 794 795 796 797 797 798 799 801 802 803 804 805 805 806 807 808 808 809 809 809 809 808 808 808 808 809 810 811 811 811 811 812 812
718 716 715 714 713 714 715 716 717 718 720 722 724 725 729 733 736 739 742 744 747 748 750 753 754 756 758 759 759 761 763 765 767 767 768 771 772 773 775 777 779 781 781 782 783 783 784 785 787 788 789 790 791 792 792 793 794 795 796 798 799 800 800 801 802 803 804 805 805 805 805 805 805 805 806 806 807 808 809 809 809 809 810 811 811
717 715 714 712 711 711 711 711 712 714 716 718 719 721 724 727 731 734 737 739 741 742 745 747 750 751 753 753 754 757 759 761 762 763 764 766 768 769 771 773 775 777 777 778 779 780 781 783 784 785 786 787 788 788 789 790 791 793 793 794 795 795 796 798 799 800 800 801 801 801 801 802 802 803 804 805 806 806 807 807 807 808 809 810 811
715 713 711 709 708 707 707 707 708 709 711 714 715 717 719 722 725 728 730 733 735 738 740 743 745 747 748 749 751 754 755 757 758 758 759 761 763 765 767 769 771 773 774 774 776 777 779 780 781 781 783 784 784 785 786 787 788 789 790 790 791 792 793 794 795 795 796 797 797 797 798 799 800 801 802 803 803 804 804 805 805 807 808 809 810
712 710 708 707 704 702 702 702 703 705 707 709 711 713 715 717 720 722 724 727 730 733 736 738 740 742 744 747 750 752 752 753 752 752 753 755 757 760 762 764 767 768 769 770 772 774 776 777 777 778 779 780 781 781 782 784 785 786 787 787 788 789 790 790 791 791 792 793 793 794 795 796 797 798 799 800 801 802 803 803 804 806 807 808 809
708 707 705 704 701 699 698 698 698 700 702 704 706 707 709 711 713 716 718 721 724 726 729 731 733 737 740 744 746 747 746 745 744 746 749 751 753 756 757 759 761 763 764 767 769 771 772 773 773 774 775 776 776 777 778 780 781 782 783 784 784 785 785 786 786 786 787 789 790 791 792 793 794 795 796 797 799 800 801 802 803 805 806 807 807
706 704 702 701 699 696 695 694 694 695 697 699 701 703 706 708 709 711 713 715 718 720 722 724 728 732 736 738 739 740 739 739 742 746 748 749 750 752 753 755 757 759 761 763 765 767 768 768 769 769 770 771 771 772 773 775 777 778 779 780 781 781 780 780 781 782 784 786 787 788 789 790 792 793 794 795 797 799 800 802 802 803 804 804 805
705 702 700 699 697 694 692 691 691 692 693 695 697 700 703 706 707 709 710 712 714 717 719 721 725 728 730 731 733 735 737 739 742 745 746 747 748 749 751 752 754 755 757 759 761 762 763 764 764 764 765 765 766 767 769 770 772 774 776 776 776 776 776 776 778 779 781 783 784 785 786 787 789 790 792 793 795 797 799 800 801 801 801 802 803
705 701 698 697 694 692 690 689 688 688 689 691 694 697 699 702 705 706 708 709 711 713 715 718 720 723 724 726 729 731 734 736 739 740 742 744 745 746 748 750 751 753 755 756 756 757 758 759 759 758 759 759 759 760 763 765 767 770 771 772 772 772 773 774 775 777 779 780 781 782 782 784 786 787 789 790 792 794 796 797 798 799 800 800 801
703 700 697 694 692 690 689 687 686 685 685 687 689 692 695 697 699 700 702 704 706 707 709 712 714 716 718 721 723 726 729 732 735 736 738 740 742 743 746 747 749 750 751 752 752 752 753 753 753 752 752 752 752 754 757 760 762 765 766 767 768 769 770 772 773 774 775 776 777 777 778 780 782 783 785 788 789 791 793 794 796 797 797 798 799
700 697 694 691 689 688 688 687 685 683 682 682 683 684 686 687 689 691 695 697 700 701 703 705 707 709 712 715 718 721 724 727 730 732 734 736 739 741 743 744 745 746 747 747 747 747 747 748 747 746 746 745 746 749 752 756 762 767 769 769 768 767 768 769 769 770 771 772 773 773 775 777 778 780 783 785 787 789 791 792 793 794 795 795 796
697 693 691 689 687 685 685 684 683 681 679 678 677 677 679 681 683 686 689 692 694 695 697 699 701 703 705 709 712 715 718 721 724 727 730 733 736 738 739 740 740 741 741 742 742 742 742 742 740 740 739 739 741 745 750 757 766 771 771 769 767 765 765 765 766 766 767 768 768 769 771 773 775 777 780 782 784 786 788 789 790 791 792 793 794
694 691 688 687 685 683 682 681 680 680 679 678 677 676 677 679 682 684 686 688 691 693 695 696 697 698 700 702 705 708 712 716 719 722 725 728 731 733 733 734 734 735 735 735 736 736 737 736 735 735 735 736 739 745 752 760 766 766 763 762 762 762 762 762 762 762 762 762 762 764 766 768 771 773 775 778 780 782 784 786 788 789 790 791 792
694 691 688 686 684 682 679 677 676 676 677 678 678 677 675 676 679 682 683 685 687 689 691 692 694 695 695 696 699 702 706 710 714 717 720 723 725 726 726 727 728 729 729 729 730 731 731 731 731 732 732 734 739 745 751 758 761 758 756 756 758 758 758 758 758 758 757 756 757 759 762 764 767 769 771 773 776 779 781 783 785 787 788 789 791
694 691 688 686 683 680 677 674 672 673 675 676 677 676 674 673 676 680 681 682 684 685 686 687 689 690 689 689 692 696 700 705 709 712 714 716 718 719 720 722 723 723 723 724 725 726 726 727 728 728 730 733 738 742 747 753 755 753 751 752 754 754 754 755 755 755 754 754 755 757 759 761 763 766 769 771 773 776 779 781 783 784 786 787 788
693 689 686 684 681 678 675 672 671 672 676 679 680 681 681 681 680 680 680 681 681 682 683 683 684 685 685 685 687 691 695 700 703 706 708 710 712 714 715 717 718 719 720 721 722 722 723 724 725 727 729 731 733 737 742 747 750 749 747 748 750 751 751 752 753 753 753 753 754 756 758 759 762 765 767 769 770 773 775 778 780 782 783 784 785
693 689 685 682 680 676 672 670 669 669 671 672 673 676 681 684 685 683 680 678 678 678 678 679 679 680 683 683 682 684 690 694 698 701 705 707 708 710 712 713 715 716 717 718 719 720 721 723 724 726 728 728 730 733 737 740 744 745 744 744 744 745 746 748 749 750 750 751 752 754 757 759 761 763 765 767 768 770 772 775 777 779 780 782 783
693 689 685 683 681 676 670 666 664 662 661 662 662 664 668 674 678 679 676 673 673 674 674 674 676 678 681 683 681 681 686 691 695 699 702 705 707 708 710 711 713 714 715 716 717 719 720 722 723 725 726 726 727 729 732 734 738 740 740 739 740 741 742 743 744 745 747 749 751 753 756 758 759 761 763 765 768 770 771 773 775 776 778 779 780
693 690 687 685 681 676 670 666 661 658 657 657 658 660 662 664 667 669 668 667 668 669 670 673 675 677 680 684 684 683 685 689 694 698 702 705 707 709 710 712 713 713 714 715 716 717 719 720 721 723 724 725 726 727 729 732 735 736 735 735 736 737 737 738 740 743 745 748 750 753 755 757 759 760 762 764 766 768 770 772 773 774 775 777 778
693 691 689 687 684 677 671 667 662 658 655 655 656 657 659 659 660 661 661 663 665 667 670 673 676 677 680 684 685 684 684 688 693 697 701 705 707 709 710 712 712 713 714 715 715 716 718 719 720 721 723 724 725 726 728 730 733 734 734 734 735 736 737 738 740 742 745 747 750 752 754 756 758 760 762 763 764 766 768 770 771 772 774 775 775
693 692 692 690 686 678 672 668 664 658 655 653 653 653 654 655 656 658 660 662 665 667 669 672 674 675 679 683 684 682 682 685 690 695 699 703 706 708 709 711 711 712 713 714 715 716 717 718 719 720 722 724 725 726 728 730 732 734 734 734 736 737 738 739 740 742 745 748 750 752 754 756 758 760 761 762 763 765 767 769 770 771 772 772 773
695 694 694 693 688 680 675 672 668 660 655 652 650 649 650 652 653 656 659 661 663 666 668 670 672 674 677 680 681 680 680 683 687 691 696 700 703 706 708 710 711 712 713 714 715 716 717 717 718 719 721 723 725 726 728 730 732 733 734 735 737 738 739 740 742 744 746 748 750 752 754 756 758 759 760 761 763 764 765 767 768 769 770 771 772
699 697 697 697 692 684 679 677 673 664 658 654 650 648 649 649 650 653 657 659 662 665 667 669 671 672 674 677 679 678 678 681 684 689 693 697 701 704 707 709 710 711 713 714 716 717 717 718 718 719 721 723 725 727 729 730 732 733 735 737 739 740 741 742 744 746 749 750 752 753 755 756 757 758 759 760 762 763 764 765 767 768 769 770 771
704 702 701 700 695 688 684 683 678 670 664 660 655 652 652 653 653 654 657 659 661 664 666 668 670 671 673 675 677 677 677 679 683 687 692 697 700 703 706 708 710 712 713 715 716 717 717 718 719 721 722 724 726 728 729 731 732 734 735 738 740 742 743 744 746 748 751 753 753 754 755 756 757 758 759 760 761 763 764 765 766 767 769 770 770
708 706 703 699 696 693 690 688 682 676 671 667 663 659 658 659 659 660 662 663 665 666 668 670 672 673 675 677 679 679 679 681 684 688 692 697 700 704 707 709 711 713 715 717 718 719 720 721 723 724 725 726 728 729 731 732 734 735 737 739 741 743 744 746 748 750 753 754 755 755 756 757 758 759 760 761 762 763 764 765 767 768 769 770 770
712 709 704 700 699 699 696 692 688 684 679 675 671 667 665 664 664 665 666 668 670 672 673 674 675 676 678 681 682 683 683 685 688 692 695 698 702 706 708 710 712 714 716 718 721 722 724 725 726 726 727 729 730 731 732 734 736 738 739 741 743 745 746 748 750 752 755 756 756 757 758 758 760 761 761 762 763 764 765 766 767 768 768 769 769
713 711 706 702 701 703 701 696 693 691 687 683 679 676 674 673 673 672 670 670 673 677 679 681 681 681 682 683 684 685 688 691 695 698 700 702 705 707 709 711 713 716 718 721 723 725 727 728 729 730 730 731 732 733 734 736 738 740 741 743 744 746 748 750 752 754 756 758 758 759 760 760 761 762 763 764 764 765 765 766 766 767 767 767 768
715 713 710 706 704 706 705 701 698 696 694 691 689 687 685 684 684 680 676 674 676 680 684 687 688 688 688 687 686 688 693 700 704 705 706 708 709 710 711 713 715 718 722 725 727 728 729 730 732 733 734 734 735 736 737 738 741 743 745 746 747 748 749 751 753 755 757 759 760 761 761 762 762 763 763 764 765 765 765 766 766 766 766 767 767